Hourly Data Report for October 19, 2016

All times are specified in Local Standard Time (LST). Add 1 hour to adjust for Daylight Saving Time where and when it is observed.

HALL BEACH A
NUNAVUT

68°46'33.000" N
81°14'33.000" W
9.10 m
2402354
71293
YUX

Download Data

Hourly Data (October 2016)
Hourly Data Report for October 19, 2016
Temp Definition
°C
Dew Point Temp Definition
°C
Rel Hum Definition
%
Wind Dir Definition
10's deg

Wind Spd Definition
km/h
Visibility Definition
km
Stn Press Definition
kPa
Hmdx Definition


Wind Chill Definition


Weather Definition


TIME
00:00 Legend Double Dagger -9.2 -11.4 84 28 21 16.1 102.19   -17 LegendNANA
01:00 Legend Double Dagger -9.1 -11.5 83 29 24 16.1 102.18   -17 LegendNANA
02:00 Legend Double Dagger -9.4 -11.8 83 30 21 16.1 102.17   -17 LegendNANA
03:00 Legend Double Dagger -9.8 -11.9 85 28 17 16.1 102.16   -17 LegendNANA
04:00 Legend Double Dagger -11.2 -13.3 85 29 18 16.1 102.13   -19 LegendNANA
05:00 Legend Double Dagger -11.8 -13.7 86 29 11 16.1 102.06   -18 LegendNANA
06:00 Legend Double Dagger -12.5 -14.2 87 25 9 16.1 102.02   -18 LegendNANA
07:00 Legend Double Dagger -11.9 -13.8 86 22 8 16.1 101.96   -17 LegendNANA
08:00 Legend Double Dagger -12.6 -14.2 88 24 13 16.1 101.88   -19 LegendNANA
09:00 Legend Double Dagger -12.8 -14.5 87 25 11 16.1 101.81   -19 LegendNANA
10:00 Legend Double Dagger -11.3 -13.6 83 23 13 16.1 101.72   -18 LegendNANA
11:00 Legend Double Dagger -10.4 -13.3 79 23 21 16.1 101.62   -19 LegendNANA
12:00 Legend Double Dagger -9.6 -11.2 88 23 18 9.7 101.53   -17 Snow
13:00 Legend Double Dagger -8.9 -10.4 89 21 17 4.8 101.45   -16 Snow
14:00 Legend Double Dagger -8.3 -9.8 89 22 17 6.4 101.37   -15 Snow
15:00 Legend Double Dagger -7.9 -9.3 90 22 21 16.1 101.29   -15 LegendNANA
16:00 Legend Double Dagger -7.1 -8.2 92 21 21 6.4 101.19   -14 Snow
17:00 Legend Double Dagger -6.1 -7.1 93 21 22 9.7 101.07   -13 Snow
18:00 Legend Double Dagger -5.4 -6.7 91 22 24 6.4 100.98   -13 Snow
19:00 Legend Double Dagger -5.8 -6.9 92 21 35 2.4 100.85   -15 Snow
20:00 Legend Double Dagger -5.4 -6.2 94 22 39 2.0 100.71   -15 Snow
21:00 Legend Double Dagger -5.1 -5.8 95 22 37 2.0 100.55   -14 Snow
22:00 Legend Double Dagger -4.5 -5.3 94 22 37 2.0 100.40   -13 Snow
23:00 Legend Double Dagger -4.0 -4.8 94 23 32 4.8 100.28   -12 Snow

Notes on Data Quality.

Legend

  • E = Estimated
  • M = Missing
  • NA = Not Available
  • ‡ = Partner data that is not subject to review by the National Climate Archives
Date modified: